| time (UTC) | temp F | wind direction | speed knots | gust knots | rain 1hr in | rain 24hr in | rain mn in | humidity % | barometer mb |
| 20260906200016 | 73 | 23 | 2.6 | 7.8 | 0.00 | 0.00 | 0.00 | 43 | 1015.3 |
| 20260906193015 | 74 | 45 | 2.6 | 11.3 | 0.00 | 0.00 | 0.00 | 46 | 1015.2 |
| 20260906190017 | 75 | 23 | 2.6 | 7.0 | 0.00 | 0.00 | 0.00 | 46 | 1015.3 |
| 20260906183018 | 75 | 23 | 2.6 | 6.1 | 0.00 | 0.00 | 0.00 | 43 | 1015.4 |
| 20260906180017 | 74 | 23 | 2.6 | 6.1 | 0.00 | 0.00 | 0.00 | 44 | 1015.4 |
| 20260906173017 | 74 | 23 | 2.6 | 8.7 | 0.00 | 0.00 | 0.00 | 50 | 1015.5 |
| 20260906170017 | 73 | 45 | 2.6 | 8.7 | 0.00 | 0.00 | 0.00 | 50 | 1015.7 |
| 20260906163018 | 71 | 23 | 2.6 | 6.1 | 0.00 | 0.00 | 0.00 | 53 | 1015.8 |
| 20260906160017 | 70 | 45 | 2.6 | 8.7 | 0.00 | 0.00 | 0.00 | 54 | 1015.9 |
| 20260906153016 | 69 | 23 | 2.6 | 7.0 | 0.00 | 0.00 | 0.00 | 58 | 1016.1 |
| 20260906150017 | 69 | 23 | 1.7 | 5.2 | 0.00 | 0.00 | 0.00 | 58 | 1016.2 |
| 20260906143016 | 68 | 45 | 1.7 | 4.3 | 0.00 | 0.00 | 0.00 | 61 | 1016.0 |
| 20260906140017 | 66 | 23 | 1.7 | 6.1 | 0.00 | 0.00 | 0.00 | 62 | 1015.8 |
| 20260906133016 | 66 | 23 | 1.7 | 4.3 | 0.00 | 0.00 | 0.00 | 64 | 1015.8 |
| 20260906130017 | 66 | 23 | 1.7 | 4.3 | 0.00 | 0.00 | 0.00 | 63 | 1015.5 |
| 20260906123017 | 65 | 0 | 0.9 | 2.6 | 0.00 | 0.00 | 0.00 | 66 | 1015.5 |
| 20260906120016 | 63 | 0.0 | 0.0 | 0.00 | 0.00 | 0.00 | 69 | 1015.4 | |
| 20260906113016 | 62 | 0.0 | 0.9 | 0.00 | 0.00 | 0.00 | 73 | 1015.0 | |
| 20260906110016 | 62 | 0.0 | 0.9 | 0.00 | 0.00 | 0.00 | 71 | 1014.6 | |
| 20260906103016 | 62 | 0.0 | 0.9 | 0.00 | 0.00 | 0.00 | 71 | 1014.2 | |
| 20260906100017 | 62 | 0.0 | 0.0 | 0.00 | 0.00 | 0.00 | 70 | 1014.0 | |
| 20260906093017 | 63 | 0.0 | 1.7 | 0.00 | 0.00 | 0.00 | 68 | 1013.8 | |
| 20260906090016 | 63 | 68 | 0.9 | 3.5 | 0.00 | 0.00 | 0.00 | 67 | 1013.5 |
| 20260906083016 | 63 | 45 | 0.9 | 3.5 | 0.00 | 0.00 | 0.00 | 67 | 1013.3 |
| 20260906080017 | 62 | 0.0 | 0.0 | 0.00 | 0.00 | 0.00 | 69 | 1013.3 | |
| 20260906073015 | 63 | 0.0 | 0.0 | 0.00 | 0.00 | 0.00 | 68 | 1013.2 | |
| 20260906070016 | 64 | 0.0 | 0.0 | 0.00 | 0.00 | 0.00 | 68 | 1013.2 | |
| 20260906063015 | 64 | 0.0 | 0.0 | 0.00 | 0.00 | 0.00 | 68 | 1013.2 | |
| 20260906060015 | 65 | 0.0 | 1.7 | 0.00 | 0.00 | 0.00 | 67 | 1013.2 | |
| 20260906053017 | 65 | 338 | 0.9 | 2.6 | 0.00 | 0.00 | 0.00 | 66 | 1013.3 |
| 20260906050017 | 65 | 0 | 0.9 | 2.6 | 0.00 | 0.00 | 0.00 | 67 | 1013.2 |
| 20260906043015 | 65 | 23 | 0.9 | 3.5 | 0.00 | 0.00 | 0.00 | 67 | 1013.2 |
| 20260906040021 | 66 | 0 | 0.9 | 2.6 | 0.00 | 0.00 | 0.00 | 67 | 1012.9 |
| 20260906033017 | 66 | 0.0 | 1.7 | 0.00 | 0.00 | 0.00 | 67 | 1013.0 | |
| 20260906030017 | 66 | 0.0 | 0.0 | 0.00 | 0.00 | 0.00 | 67 | 1012.8 | |
| 20260906023015 | 66 | 0.0 | 0.9 | 0.00 | 0.00 | 0.00 | 66 | 1012.8 | |
| 20260906020017 | 67 | 0.0 | 0.9 | 0.00 | 0.00 | 0.00 | 65 | 1012.6 | |
| 20260906013016 | 67 | 0.0 | 1.7 | 0.00 | 0.00 | 0.00 | 64 | 1012.5 | |
| 20260906010016 | 68 | 338 | 0.9 | 1.7 | 0.00 | 0.00 | 0.00 | 63 | 1012.3 |
| 20260906003015 | 70 | 0 | 0.9 | 3.5 | 0.00 | 0.00 | 0.00 | 60 | 1011.9 |
| 20260906000055 | 70 | 0.0 | 1.7 | 0.00 | 0.00 | 0.00 | 60 | 1011.9 | |
| 20260905233015 | 71 | 0.0 | 1.7 | 0.00 | 0.00 | 0.00 | 58 | 1011.6 | |
| 20260905230035 | 72 | 338 | 0.9 | 3.5 | 0.00 | 0.00 | 0.00 | 56 | 1011.4 |
| 20260905223015 | 73 | 0 | 1.7 | 5.2 | 0.00 | 0.00 | 0.00 | 54 | 1011.4 |
| 20260905220016 | 74 | 0 | 1.7 | 4.3 | 0.00 | 0.00 | 0.00 | 53 | 1011.1 |
| 20260905213015 | 75 | 23 | 1.7 | 6.1 | 0.00 | 0.00 | 0.00 | 50 | 1010.9 |
| 20260905210036 | 76 | 23 | 1.7 | 4.3 | 0.00 | 0.00 | 0.00 | 51 | 1010.6 |
| 20260905203015 | 77 | 45 | 1.7 | 7.0 | 0.00 | 0.00 | 0.00 | 47 | 1010.3 |